Le nostre stazioni meteo in Italia

Pubblicità
Il mio iltempo24.it
Perugia, Italia (16181): Temperatura & dewpoint: 29.05.2020 18:00:00 - 04.06.2020 18:00:00 (CEST)Perugia, Italia (16181): velocità del vento: 29.05.2020 18:00:00 - 04.06.2020 18:00:00 (CEST)Perugia, Italia (16181): direzione del vento: 29.05.2020 18:00:00 - 04.06.2020 18:00:00 (CEST)Perugia, Italia (16181): visibility: 29.05.2020 18:00:00 - 04.06.2020 18:00:00 (CEST)
Data & Tempo tt [°C] td [°C] ff [km/h] ff [kn] dd vv [km]
04.06.2020 18:00:00 23,0 12,0 16 9 S 10
04.06.2020 17:00:00 24,0 11,0 21 11 S 10
04.06.2020 16:00:00 24,0 11,0 16 9 S 10
04.06.2020 15:00:00 22,0 12,0 18 10 S 10
04.06.2020 14:00:00 21,0 12,0 18 10 S 10
04.06.2020 13:00:00 20,0 14,0 11 6 SSE 10
04.06.2020 12:00:00 20,0 13,0 15 8 SSE 10
04.06.2020 11:00:00 19,0 13,0 15 8 SSE 10
04.06.2020 10:00:00 18,0 14,0 15 8 S 10
04.06.2020 09:00:00 18,0 14,0 11 6 S 10
04.06.2020 08:00:00 18,0 14,0 13 7 SSE 10
04.06.2020 07:00:00 15,0 15,0 4 2 - 10
04.06.2020 06:00:00 15,0 13,0 4 2 - 10
04.06.2020 05:00:00 14,0 13,0 2 1 - 10
04.06.2020 04:00:00 13,0 12,0 8 4 NNE 10
04.06.2020 03:00:00 15,0 13,0 5 3 SSO 10
04.06.2020 02:00:00 15,0 12,0 0 0 N 10
04.06.2020 01:00:00 15,0 13,0 8 4 SO 10
04.06.2020 00:00:00 16,0 13,0 4 2 - 10
03.06.2020 23:00:00 17,0 14,0 4 2 - 10
03.06.2020 22:00:00 17,0 14,0 5 3 SSO 10
03.06.2020 21:00:00 19,0 13,0 13 7 SSE 10
03.06.2020 20:00:00 20,0 13,0 13 7 SE 10
03.06.2020 19:00:00 21,0 13,0 21 11 SE 10
03.06.2020 18:00:00 - - - - - -
03.06.2020 17:00:00 - - - - - -
03.06.2020 16:00:00 26,0 12,0 15 8 O 10
03.06.2020 15:00:00 26,0 13,0 16 9 O 10
03.06.2020 14:00:00 24,0 13,0 9 5 O 10
03.06.2020 13:00:00 23,0 13,0 9 5 - 10
03.06.2020 12:00:00 22,0 14,0 5 3 - 10
03.06.2020 11:00:00 21,0 14,0 4 2 - 10
03.06.2020 10:00:00 19,0 13,0 4 2 - 10
03.06.2020 09:00:00 17,0 13,0 4 2 - 10
03.06.2020 08:00:00 15,0 13,0 4 2 - 10
03.06.2020 07:00:00 13,0 12,0 5 3 N 10
03.06.2020 06:00:00 12,0 12,0 5 3 N 10
03.06.2020 05:00:00 12,0 12,0 8 4 NNO 10
03.06.2020 04:00:00 13,0 12,0 11 6 N 10
03.06.2020 03:00:00 14,0 13,0 5 3 E 10
03.06.2020 02:00:00 16,0 13,0 9 5 SO 10
03.06.2020 01:00:00 17,0 12,0 5 3 SSE 10
03.06.2020 00:00:00 18,0 12,0 13 7 SE 10
02.06.2020 23:00:00 18,0 11,0 15 8 SE 10
02.06.2020 22:00:00 20,0 12,0 9 5 E 10
02.06.2020 21:00:00 20,0 12,0 13 7 N 10
02.06.2020 20:00:00 23,0 11,0 13 7 NNE 10
02.06.2020 19:00:00 25,0 10,0 15 8 N 10
02.06.2020 18:00:00 25,0 9,0 8 4 NNO 10
02.06.2020 17:00:00 26,0 8,0 5 3 - 10
02.06.2020 16:00:00 25,0 10,0 9 5 N 10
02.06.2020 15:00:00 24,0 7,0 5 3 - 10
02.06.2020 14:00:00 24,0 7,0 11 6 NNO 10
02.06.2020 13:00:00 24,0 9,0 5 3 - 10
02.06.2020 12:00:00 23,0 10,0 5 3 - 10
02.06.2020 11:00:00 21,0 11,0 2 1 - 10
02.06.2020 10:00:00 18,0 10,0 4 2 - 10
02.06.2020 09:00:00 16,0 9,0 2 1 - 10
02.06.2020 08:00:00 13,0 9,0 4 2 - 10
02.06.2020 07:00:00 11,0 9,0 8 4 N 10
02.06.2020 06:00:00 10,0 8,0 8 4 N 10
02.06.2020 05:00:00 11,0 8,0 5 3 NE 10
02.06.2020 04:00:00 12,0 8,0 13 7 NO 10
02.06.2020 03:00:00 11,0 8,0 13 7 NNO 10
02.06.2020 02:00:00 12,0 9,0 15 8 N 10
02.06.2020 01:00:00 15,0 8,0 13 7 NNE 10
02.06.2020 00:00:00 14,0 9,0 13 7 NNO 10
01.06.2020 23:00:00 15,0 9,0 11 6 NNO 10
01.06.2020 22:00:00 16,0 9,0 18 10 NNE 10
01.06.2020 21:00:00 17,0 9,0 13 7 NNE 10
01.06.2020 20:00:00 21,0 8,0 18 10 NE 10
01.06.2020 19:00:00 22,0 9,0 28 15 NNE 10
01.06.2020 18:00:00 22,0 9,0 21 11 NNE 10
01.06.2020 17:00:00 22,0 10,0 24 13 NNE 10
01.06.2020 16:00:00 22,0 10,0 22 12 NNE 10
01.06.2020 15:00:00 22,0 9,0 22 12 NNE 10
01.06.2020 14:00:00 21,0 9,0 18 10 NE 10
01.06.2020 13:00:00 21,0 10,0 26 14 NNE 10
01.06.2020 12:00:00 19,0 8,0 28 15 NE 10
01.06.2020 11:00:00 20,0 8,0 26 14 NE 10
01.06.2020 10:00:00 19,0 7,0 22 12 NNE 10
01.06.2020 09:00:00 17,0 8,0 15 8 NNE 10
01.06.2020 08:00:00 14,0 9,0 11 6 NNO 10
01.06.2020 07:00:00 12,0 8,0 13 7 N 10
01.06.2020 06:00:00 10,0 8,0 18 10 N 10
01.06.2020 05:00:00 11,0 8,0 5 3 NO 10
01.06.2020 04:00:00 11,0 9,0 16 9 N 10
01.06.2020 03:00:00 11,0 9,0 15 8 N 10
01.06.2020 02:00:00 14,0 11,0 8 4 ONO 10
01.06.2020 01:00:00 14,0 11,0 8 4 ONO 10
01.06.2020 00:00:00 14,0 11,0 11 6 NO 10
31.05.2020 23:00:00 14,0 11,0 13 7 N 10
31.05.2020 22:00:00 17,0 11,0 5 3 ONO 10
31.05.2020 21:00:00 17,0 11,0 9 5 NE 10
31.05.2020 20:00:00 19,0 11,0 11 6 NNE 10
31.05.2020 19:00:00 20,0 11,0 18 10 NE 10
31.05.2020 18:00:00 21,0 9,0 11 6 N 10
31.05.2020 17:00:00 21,0 9,0 8 4 NE 10
31.05.2020 16:00:00 21,0 9,0 11 6 N 10
31.05.2020 15:00:00 21,0 9,0 18 10 NE 10
31.05.2020 14:00:00 21,0 8,0 5 3 - 10
31.05.2020 13:00:00 20,0 7,0 5 3 - 10
31.05.2020 12:00:00 20,0 9,0 4 2 - 10
31.05.2020 11:00:00 19,0 9,0 8 4 - 10
31.05.2020 10:00:00 15,0 9,0 9 5 NO 10
31.05.2020 09:00:00 15,0 8,0 4 2 - 10
31.05.2020 08:00:00 12,0 9,0 4 2 - 10
31.05.2020 07:00:00 10,0 8,0 4 2 - 10
31.05.2020 06:00:00 9,0 8,0 4 2 - 10
31.05.2020 05:00:00 10,0 8,0 9 5 N 10
31.05.2020 04:00:00 10,0 8,0 18 10 N 10
31.05.2020 03:00:00 11,0 8,0 13 7 NNO 10
31.05.2020 02:00:00 - - - - - -
31.05.2020 01:00:00 12,0 10,0 15 8 NNO 10
31.05.2020 00:00:00 13,0 10,0 15 8 NNE 10
30.05.2020 23:00:00 12,0 10,0 13 7 NNE 10
30.05.2020 22:00:00 14,0 10,0 16 9 NNE 10
30.05.2020 21:00:00 16,0 9,0 15 8 NNE 10
30.05.2020 20:00:00 18,0 9,0 22 12 NNE 10
30.05.2020 19:00:00 19,0 10,0 16 9 N 10
30.05.2020 18:00:00 19,0 9,0 28 15 NE 10
30.05.2020 17:00:00 20,0 8,0 26 14 NE 10
30.05.2020 16:00:00 19,0 10,0 24 13 NNE 10
30.05.2020 15:00:00 19,0 10,0 31 17 NE 10
30.05.2020 14:00:00 20,0 9,0 18 10 NNE 10
30.05.2020 13:00:00 18,0 10,0 18 10 N 10
30.05.2020 12:00:00 17,0 10,0 18 10 NNE 10
30.05.2020 11:00:00 17,0 11,0 22 12 NNE 10
30.05.2020 10:00:00 14,0 11,0 15 8 N 10
30.05.2020 09:00:00 13,0 10,0 11 6 NO 10
30.05.2020 08:00:00 12,0 10,0 13 7 N 10
30.05.2020 07:00:00 12,0 9,0 18 10 N 10
30.05.2020 06:00:00 12,0 10,0 9 5 NNE 10
30.05.2020 05:00:00 11,0 10,0 11 6 N 10
30.05.2020 04:00:00 11,0 10,0 11 6 N 10
30.05.2020 03:00:00 11,0 10,0 11 6 NNO 10
30.05.2020 02:00:00 11,0 10,0 13 7 NNO 10
30.05.2020 01:00:00 11,0 10,0 11 6 N 10
30.05.2020 00:00:00 11,0 10,0 9 5 N 10
29.05.2020 23:00:00 11,0 11,0 11 6 N 10
29.05.2020 22:00:00 11,0 11,0 9 5 N 8
29.05.2020 21:00:00 11,0 10,0 11 6 N 8
29.05.2020 20:00:00 11,0 10,0 15 8 N 10
29.05.2020 19:00:00 12,0 11,0 16 9 N 10
29.05.2020 18:00:00 12,0 11,0 15 8 NNO 10

tt = Temperatura
td = dewpoint
ff = velocità del vento
dd = direzione del vento
vv = visibility

Stazioni seguenti

WeatherPro
AMSI
MeteoEarth